Regional Weather Roundup
Issued by NWS

Home | Current Version | Previous Version | Graphics & Text | Print | Product List | Glossary On
Versions: 1 2 3 4 5 6 7 8 9 10 11 12 13 14 15 16 17 18 19 20 21 22 23 24 25 26 27 28 29 30 31 32 33 34 35 36 37 38 39 40 41 42 43 44 45 46 47 48 49 50
000
ASUS43 KDMX 262006
RWRIA

WEATHER ROUNDUP FOR IOWA
NATIONAL WEATHER SERVICE DES MOINES IA
300 PM CDT WED APR 26 2017

NOTE: "FAIR" INDICATES FEW OR NO CLOUDS BELOW 12,000 FEET WITH NO
SIGNIFICANT WEATHER AND/OR OBSTRUCTIONS TO VISIBILITY.

* - THESE STATIONS ARE NOT NWS STATIONS...THUS NOT UNDER NWS
QUALITY CONTROL.  THEY ALSO DO NOT REPORT WEATHER SUCH
AS PRECIPITATION OR FOG.

IAZ001>003-012>014-020>022-031>034-043>046-262100-
   NORTHWEST IOWA

CITY           SKY/WX    TMP DP  RH WIND       PRES   REMARKS
CARROLL *      CLOUDY    43  37  81 NW20      29.62R
CHEROKEE *     CLOUDY    40  35  82 NW16G31   29.62F WCI  32
DENISON *      CLOUDY    39  36  87 NW16G23   29.66R WCI  30
LE MARS *      CLOUDY    39  34  81 NW20G25   29.67F WCI  30
ORANGE CITY *  CLOUDY    37  34  87 NW16G23   29.64F WCI  28
SHELDON *      CLOUDY    37  32  81 NW21G28   29.61F WCI  27
SIOUX CITY     CLOUDY    41  33  73 NW23G31   29.66F
SPENCER        CLOUDY    40  35  83 NW20G28   29.60F WCI  30
STORM LAKE *     N/A     39  36  87 NW24G31   29.59F WCI  28
$$

IAZ055>058-069>071-079>083-090>094-262100-
   SOUTHWEST IOWA

CITY           SKY/WX    TMP DP  RH WIND       PRES   REMARKS
ATLANTIC *     CLOUDY    43  36  75 NW14G22   29.64R
AUDUBON *      CLOUDY    41  36  81 N14G22    29.64R
CLARINDA *     CLOUDY    46  36  66 N13       29.67R
COUNCIL BLFS *   N/A     43  36  75 NW17G24   29.65S
CRESTON *      CLOUDY    45  37  76 NW14      29.62S
HARLAN  *      CLOUDY    41  36  81 NW17G25   29.68R
LAMONI         CLOUDY    49  40  71 NW16      29.59S
RED OAK *      CLOUDY    45  36  70 NW14G24   29.65R
SHENANDOAH *   CLOUDY    46  36  66 N15G21    29.66S
$$

IAZ047>049-059>061-072>074-084-262100-
   CENTRAL IOWA

CITY           SKY/WX    TMP DP  RH WIND       PRES   REMARKS
AMES           CLOUDY    47  40  76 NW16G25   29.59R
ANKENY *       CLOUDY    48  39  71 NW14      29.60R
BOONE *        CLOUDY    45  39  81 NW14G22   29.58R
CHARITON *     CLOUDY    50  43  76 NW13G18   29.57R
DES MOINES     CLOUDY    49  38  65 NW15      29.59R
GRINNELL*      CLOUDY    51  42  72 W20       29.56R
KNOXVILLE *    CLOUDY    50  41  71 NW17      29.56S
MARSHALLTOWN   CLOUDY    48  40  73 NW17      29.55F
NEWTON *       CLOUDY    50  41  71 NW12G18   29.55R
PELLA *        CLOUDY    51  42  70 NW15G21   29.57S
PERRY *        CLOUDY    46  38  76 NW13      29.62R
$$

IAZ004>006-015-016-023>025-035-036-262100-
   NORTH CENTRAL IOWA

CITY           SKY/WX    TMP DP  RH WIND       PRES   REMARKS
ALGONA *       CLOUDY    43  37  81 NW21G29   29.56F
CLARION *      CLOUDY    43  41  93 NW20G28   29.56R
ESTHERVILLE    CLOUDY    40  37  89 NW22      29.59S WCI  30
FORT DODGE *   CLOUDY    43  36  75 NW14G21   29.59R
MASON CITY     CLOUDY    43  38  82 NW17      29.55S
FOREST CITY *  CLOUDY    43  34  70 NW20G25   29.54F
WEBSTER CITY * CLOUDY    45  37  76 NW20      29.56R
IOWA FALLS *   CLOUDY    47  38  73 NW20G25   29.57S
$$

IAZ007>011-017>019-026>030-037>042-050>054-066-262100-
   NORTHEAST IOWA

CITY           SKY/WX    TMP DP  RH WIND       PRES   REMARKS
CEDAR RAPIDS   CLOUDY    49  45  86 W15       29.52S
CHARLES CITY * CLOUDY    45  39  81 NW15G22   29.53S
CLINTON *      CLOUDY    52  49  89 SW16      29.54R
DECORAH *      CLOUDY    45  41  87 VRB7      29.50R
DUBUQUE        CLOUDY    51  49  92 W15       29.48F
MONTICELLO *   CLOUDY    50  46  87 W12G18    29.50S
OELWEIN *      CLOUDY    46  45  93 NW17      29.51F
WATERLOO       CLOUDY    46  39  76 NW14G21   29.53S
$$

IAZ064-065-067-068-078-262100-
   EAST CENTRAL IOWA

CITY           SKY/WX    TMP DP  RH WIND       PRES   REMARKS
DAVENPORT      CLOUDY    51  47  86 SW15      29.56R
IOWA CITY      CLOUDY    51  44  77 W15       29.54S
MT. PLEASANT * CLOUDY    49  44  83 W8G16     29.57R
MUSCATINE *    CLOUDY    52  45  76 W10       29.57R
QUAD CITIES    CLOUDY    52  47  83 SW10      29.55R
$$

IAZ062-063-075>077-085>089-095>099-262100-
   SOUTHEAST IOWA

CITY           SKY/WX    TMP DP  RH WIND       PRES   REMARKS
BURLINGTON     CLOUDY    51  47  86 W9        29.56R
FAIRFIELD *    CLOUDY    48  43  81 NW9       29.55F
FORT MADISON * CLOUDY    52  46  82 NW5       29.57R
KEOKUK *       CLOUDY    50  46  87 W7        29.57R
OSKALOOSA *    CLOUDY    49  42  75 W13       29.57S
CENTERVILLE *    N/A     50  43  76 W10       29.58S
OTTUMWA        CLOUDY    50  43  77 W10       29.56F
WASHINGTON *   CLOUDY    48  45  87 W10       29.56F
$$

ABBREVIATIONS USED IN REMARKS
   TC - TEMPERATURES IN CELSIUS
  WCI - WIND CHILL INDEX
   HX - HEAT INDEX
  VSB - VISIBILITY
$$





USA.gov is the U.S. government's official web portal to all federal, state and local government web resources and services.